| time (UTC) | temp C | wind direction | speed KPH | gust KPH | rain 1hr cm | rain 24hr cm | rain mn cm | humidity % | barometer mb |
| 20260510185403 | 23 | 87 | 6.4 | 16.1 | 0.00 | 0.00 | 0.00 | 20 | 1024.4 |
| 20260510184524 | 23 | 140 | 6.4 | 16.1 | 0.00 | 0.00 | 0.00 | 20 | 1024.4 |
| 20260510183603 | 23 | 120 | 8.0 | 14.5 | 0.00 | 0.00 | 0.00 | 23 | 1024.5 |
| 20260510182703 | 23 | 84 | 4.8 | 14.5 | 0.00 | 0.00 | 0.00 | 23 | 1024.7 |
| 20260510181803 | 22 | 73 | 6.4 | 12.9 | 0.00 | 0.00 | 0.00 | 23 | 1024.8 |
| 20260510180903 | 22 | 105 | 6.4 | 12.9 | 0.00 | 0.00 | 0.00 | 23 | 1024.9 |
| 20260510180003 | 21 | 117 | 6.4 | 17.7 | 0.00 | 0.00 | 0.00 | 25 | 1025.0 |
| 20260510175403 | 21 | 107 | 8.0 | 17.7 | 0.00 | 0.00 | 0.00 | 25 | 1025.0 |
| 20260510174503 | 21 | 103 | 8.0 | 17.7 | 0.00 | 0.00 | 0.00 | 27 | 1025.0 |
| 20260510173603 | 20 | 99 | 9.7 | 17.7 | 0.00 | 0.00 | 0.00 | 26 | 1025.1 |
| 20260510172703 | 20 | 97 | 9.7 | 16.1 | 0.00 | 0.00 | 0.00 | 26 | 1025.1 |
| 20260510171803 | 20 | 98 | 8.0 | 16.1 | 0.00 | 0.00 | 0.00 | 28 | 1025.1 |
| 20260510170903 | 19 | 104 | 9.7 | 14.5 | 0.00 | 0.00 | 0.00 | 30 | 1025.2 |
| 20260510170003 | 18 | 107 | 8.0 | 17.7 | 0.00 | 0.00 | 0.00 | 32 | 1025.3 |
| 20260510165403 | 18 | 119 | 8.0 | 14.5 | 0.00 | 0.00 | 0.00 | 35 | 1025.2 |
| 20260510164503 | 18 | 115 | 6.4 | 14.5 | 0.00 | 0.00 | 0.00 | 36 | 1025.1 |
| 20260510163603 | 18 | 107 | 8.0 | 12.9 | 0.00 | 0.00 | 0.00 | 34 | 1025.1 |
| 20260510162703 | 17 | 128 | 9.7 | 14.5 | 0.00 | 0.00 | 0.00 | 36 | 1025.1 |
| 20260510161803 | 17 | 120 | 6.4 | 14.5 | 0.00 | 0.00 | 0.00 | 36 | 1025.1 |
| 20260510160903 | 17 | 109 | 6.4 | 14.5 | 0.00 | 0.00 | 0.00 | 37 | 1025.1 |
| 20260510160003 | 17 | 95 | 9.7 | 14.5 | 0.00 | 0.00 | 0.00 | 40 | 1025.1 |
| 20260510155424 | 17 | 97 | 8.0 | 14.5 | 0.00 | 0.00 | 0.00 | 41 | 1025.0 |
| 20260510154503 | 16 | 106 | 6.4 | 12.9 | 0.00 | 0.00 | 0.00 | 41 | 1025.1 |
| 20260510153603 | 16 | 103 | 6.4 | 12.9 | 0.00 | 0.00 | 0.00 | 41 | 1025.3 |
| 20260510152703 | 16 | 85 | 8.0 | 12.9 | 0.00 | 0.00 | 0.00 | 40 | 1025.3 |
| 20260510151824 | 15 | 87 | 4.8 | 9.7 | 0.00 | 0.00 | 0.00 | 40 | 1025.3 |
| 20260510150903 | 15 | 126 | 4.8 | 9.7 | 0.00 | 0.00 | 0.00 | 41 | 1025.3 |
| 20260510150003 | 15 | 114 | 3.2 | 9.7 | 0.00 | 0.00 | 0.00 | 43 | 1025.3 |
| 20260510145403 | 15 | 109 | 3.2 | 9.7 | 0.00 | 0.00 | 0.00 | 43 | 1025.2 |
| 20260510144503 | 14 | 111 | 1.6 | 6.4 | 0.00 | 0.00 | 0.00 | 44 | 1025.2 |
| 20260510143603 | 13 | 111 | 1.6 | 6.4 | 0.00 | 0.00 | 0.00 | 46 | 1025.1 |
| 20260510142703 | 13 | 111 | 1.6 | 6.4 | 0.00 | 0.00 | 0.00 | 49 | 1025.1 |
| 20260510141803 | 12 | 111 | 0.0 | 1.6 | 0.00 | 0.00 | 0.00 | 51 | 1025.1 |
| 20260510140903 | 11 | 0 | 0.0 | 0.0 | 0.00 | 0.00 | 0.00 | 52 | 1025.1 |
| 20260510140003 | 10 | 111 | 0.0 | 1.6 | 0.00 | 0.00 | 0.00 | 56 | 1025.0 |
| 20260510135403 | 9 | 0 | 0.0 | 0.0 | 0.00 | 0.00 | 0.00 | 58 | 1025.0 |
| 20260510134503 | 8 | 0 | 0.0 | 0.0 | 0.00 | 0.00 | 0.00 | 58 | 1024.9 |
| 20260510133624 | 8 | 0 | 0.0 | 8.0 | 0.00 | 0.00 | 0.00 | 58 | 1024.9 |
| 20260510132703 | 7 | 112 | 1.6 | 8.0 | 0.00 | 0.00 | 0.00 | 58 | 1024.8 |
| 20260510131803 | 7 | 112 | 3.2 | 8.0 | 0.00 | 0.00 | 0.00 | 59 | 1024.7 |
| 20260510130903 | 6 | 112 | 3.2 | 6.4 | 0.00 | 0.00 | 0.00 | 59 | 1024.6 |
| 20260510130003 | 6 | 112 | 1.6 | 9.7 | 0.00 | 0.00 | 0.00 | 60 | 1024.4 |
| 20260510125403 | 6 | 112 | 4.8 | 9.7 | 0.00 | 0.00 | 0.00 | 60 | 1024.3 |
| 20260510124503 | 5 | 90 | 4.8 | 9.7 | 0.00 | 0.00 | 0.00 | 60 | 1024.2 |
| 20260510123603 | 6 | 74 | 4.8 | 9.7 | 0.00 | 0.00 | 0.00 | 59 | 1024.2 |
| 20260510122703 | 6 | 82 | 3.2 | 8.0 | 0.00 | 0.00 | 0.00 | 57 | 1024.0 |
| 20260510121803 | 7 | 113 | 4.8 | 8.0 | 0.00 | 0.00 | 0.00 | 55 | 1023.9 |
| 20260510120903 | 6 | 113 | 4.8 | 8.0 | 0.00 | 0.00 | 0.00 | 57 | 1023.8 |
| 20260510120003 | 6 | 113 | 3.2 | 8.0 | 0.00 | 0.00 | 0.00 | 59 | 1023.8 |
| 20260510115403 | 6 | 113 | 0.0 | 6.4 | 0.00 | 0.00 | 0.00 | 59 | 1023.8 |
| 20260510114503 | 6 | 113 | 0.0 | 3.2 | 0.00 | 0.00 | 0.00 | 59 | 1023.7 |
| 20260510113603 | 6 | 113 | 1.6 | 3.2 | 0.00 | 0.00 | 0.00 | 59 | 1023.7 |
| 20260510112724 | 7 | 113 | 1.6 | 8.0 | 0.00 | 0.00 | 0.00 | 58 | 1023.6 |
| 20260510111803 | 7 | 113 | 3.2 | 8.0 | 0.00 | 0.00 | 0.00 | 58 | 1023.5 |
| 20260510110924 | 7 | 113 | 4.8 | 8.0 | 0.00 | 0.00 | 0.00 | 59 | 1023.5 |
| 20260510110003 | 6 | 113 | 4.8 | 8.0 | 0.00 | 0.00 | 0.00 | 59 | 1023.5 |
| 20260510105424 | 6 | 113 | 1.6 | 8.0 | 0.00 | 0.00 | 0.00 | 59 | 1023.5 |
| 20260510104503 | 6 | 113 | 1.6 | 3.2 | 0.00 | 0.00 | 0.00 | 58 | 1023.4 |
| 20260510103603 | 7 | 113 | 1.6 | 3.2 | 0.00 | 0.00 | 0.00 | 58 | 1023.5 |
| 20260510102703 | 6 | 113 | 1.6 | 3.2 | 0.00 | 0.00 | 0.00 | 59 | 1023.3 |
| 20260510101803 | 6 | 113 | 0.0 | 3.2 | 0.00 | 0.00 | 0.00 | 58 | 1023.3 |
| 20260510100903 | 7 | 113 | 0.0 | 3.2 | 0.00 | 0.00 | 0.00 | 57 | 1023.3 |
| 20260510100003 | 7 | 113 | 0.0 | 3.2 | 0.00 | 0.00 | 0.00 | 54 | 1023.2 |
| 20260510095424 | 7 | 0 | 0.0 | 8.0 | 0.00 | 0.00 | 0.00 | 55 | 1023.2 |
| 20260510094503 | 7 | 113 | 3.2 | 8.0 | 0.00 | 0.00 | 0.00 | 57 | 1023.2 |
| 20260510093603 | 7 | 113 | 3.2 | 8.0 | 0.00 | 0.00 | 0.00 | 58 | 1023.2 |
| 20260510092703 | 7 | 113 | 1.6 | 6.4 | 0.00 | 0.00 | 0.00 | 55 | 1023.1 |
| 20260510091803 | 7 | 0 | 0.0 | 0.0 | 0.00 | 0.00 | 0.00 | 52 | 1023.0 |
| 20260510090903 | 7 | 113 | 0.0 | 3.2 | 0.00 | 0.00 | 0.00 | 51 | 1023.0 |
| 20260510090003 | 7 | 0 | 0.0 | 0.0 | 0.00 | 0.00 | 0.00 | 52 | 1022.8 |
| 20260510085424 | 7 | 0 | 0.0 | 0.0 | 0.00 | 0.00 | 0.00 | 51 | 1022.8 |
| 20260510084503 | 8 | 0 | 0.0 | 3.2 | 0.00 | 0.00 | 0.00 | 51 | 1022.8 |
| 20260510083603 | 8 | 113 | 0.0 | 8.0 | 0.00 | 0.00 | 0.00 | 50 | 1022.8 |
| 20260510082724 | 8 | 113 | 3.2 | 8.0 | 0.00 | 0.00 | 0.00 | 49 | 1022.6 |
| 20260510081803 | 9 | 113 | 4.8 | 9.7 | 0.00 | 0.00 | 0.00 | 48 | 1022.7 |
| 20260510080903 | 8 | 65 | 6.4 | 9.7 | 0.00 | 0.00 | 0.00 | 48 | 1022.5 |
| 20260510080003 | 8 | 11 | 3.2 | 9.7 | 0.00 | 0.00 | 0.00 | 48 | 1022.5 |
| 20260510075403 | 9 | 22 | 1.6 | 6.4 | 0.00 | 0.00 | 0.00 | 47 | 1022.5 |
| 20260510074524 | 10 | 325 | 0.0 | 3.2 | 0.00 | 0.00 | 0.00 | 43 | 1022.5 |
| 20260510073603 | 10 | 306 | 1.6 | 8.0 | 0.00 | 0.00 | 0.00 | 40 | 1022.4 |
| 20260510072703 | 11 | 306 | 1.6 | 8.0 | 0.00 | 0.00 | 0.00 | 38 | 1022.4 |
| 20260510071803 | 11 | 321 | 6.4 | 9.7 | 0.00 | 0.00 | 0.00 | 38 | 1022.3 |
| 20260510070903 | 11 | 5 | 3.2 | 8.0 | 0.00 | 0.00 | 0.00 | 39 | 1022.2 |
| 20260510070003 | 11 | 254 | 6.4 | 8.0 | 0.00 | 0.00 | 0.00 | 38 | 1022.1 |
| 20260510065424 | 11 | 263 | 6.4 | 8.0 | 0.00 | 0.00 | 0.00 | 39 | 1022.0 |
| 20260510064503 | 11 | 338 | 4.8 | 8.0 | 0.00 | 0.00 | 0.00 | 38 | 1021.9 |
| 20260510063603 | 11 | 360 | 3.2 | 6.4 | 0.00 | 0.00 | 0.00 | 38 | 1021.9 |
| 20260510062703 | 11 | 332 | 3.2 | 6.4 | 0.00 | 0.00 | 0.00 | 41 | 1021.7 |
| 20260510061803 | 11 | 358 | 3.2 | 6.4 | 0.00 | 0.00 | 0.00 | 39 | 1021.6 |
| 20260510060903 | 11 | 353 | 3.2 | 6.4 | 0.00 | 0.00 | 0.00 | 39 | 1021.6 |
| 20260510060003 | 11 | 306 | 3.2 | 8.0 | 0.00 | 0.00 | 0.00 | 42 | 1021.5 |
| 20260510055403 | 11 | 288 | 3.2 | 8.0 | 0.00 | 0.00 | 0.00 | 43 | 1021.4 |
| 20260510054503 | 11 | 301 | 3.2 | 6.4 | 0.00 | 0.00 | 0.00 | 43 | 1021.4 |
| 20260510053603 | 11 | 305 | 1.6 | 3.2 | 0.00 | 0.00 | 0.00 | 39 | 1021.3 |
| 20260510052703 | 12 | 288 | 1.6 | 3.2 | 0.00 | 0.00 | 0.00 | 38 | 1021.3 |
| 20260510051803 | 12 | 287 | 1.6 | 3.2 | 0.00 | 0.00 | 0.00 | 37 | 1021.2 |
| 20260510050903 | 12 | 284 | 0.0 | 3.2 | 0.00 | 0.00 | 0.00 | 32 | 1021.2 |
| 20260510050003 | 12 | 284 | 0.0 | 3.2 | 0.00 | 0.00 | 0.00 | 33 | 1021.2 |
| 20260510045403 | 12 | 284 | 0.0 | 3.2 | 0.00 | 0.00 | 0.00 | 35 | 1021.2 |
| 20260510044503 | 13 | 284 | 0.0 | 1.6 | 0.00 | 0.00 | 0.00 | 35 | 1021.1 |
| 20260510043603 | 13 | 263 | 3.2 | 8.0 | 0.00 | 0.00 | 0.00 | 34 | 1021.0 |
| 20260510042703 | 13 | 262 | 6.4 | 8.0 | 0.00 | 0.00 | 0.00 | 32 | 1020.9 |
| 20260510041803 | 13 | 262 | 4.8 | 8.0 | 0.00 | 0.00 | 0.00 | 34 | 1020.9 |
| 20260510040903 | 13 | 266 | 3.2 | 6.4 | 0.00 | 0.00 | 0.00 | 31 | 1020.8 |
| 20260510040003 | 14 | 262 | 4.8 | 8.0 | 0.00 | 0.00 | 0.00 | 28 | 1020.7 |
| 20260510035403 | 14 | 269 | 4.8 | 8.0 | 0.00 | 0.00 | 0.00 | 28 | 1020.7 |
| 20260510034503 | 15 | 283 | 1.6 | 6.4 | 0.00 | 0.00 | 0.00 | 28 | 1020.6 |
| 20260510033603 | 15 | 283 | 0.0 | 3.2 | 0.00 | 0.00 | 0.00 | 29 | 1020.4 |
| 20260510032703 | 15 | 239 | 1.6 | 4.8 | 0.00 | 0.00 | 0.00 | 25 | 1020.3 |
| 20260510031824 | 16 | 205 | 1.6 | 6.4 | 0.00 | 0.00 | 0.00 | 25 | 1020.2 |
| 20260510030903 | 16 | 205 | 1.6 | 9.7 | 0.00 | 0.00 | 0.00 | 24 | 1020.1 |
| 20260510030024 | 16 | 205 | 6.4 | 9.7 | 0.00 | 0.00 | 0.00 | 24 | 1020.0 |
| 20260510025403 | 17 | 206 | 8.0 | 9.7 | 0.00 | 0.00 | 0.00 | 23 | 1019.8 |
| 20260510024503 | 17 | 200 | 8.0 | 9.7 | 0.00 | 0.00 | 0.00 | 23 | 1019.8 |
| 20260510023624 | 18 | 205 | 6.4 | 8.0 | 0.00 | 0.00 | 0.00 | 22 | 1019.7 |
| 20260510022703 | 19 | 296 | 1.6 | 8.0 | 0.00 | 0.00 | 0.00 | 19 | 1019.6 |
| 20260510021803 | 20 | 313 | 1.6 | 9.7 | 0.00 | 0.00 | 0.00 | 18 | 1019.6 |
| 20260510020924 | 20 | 313 | 6.4 | 14.5 | 0.00 | 0.00 | 0.00 | 18 | 1019.7 |
| 20260510020024 | 21 | 310 | 9.7 | 19.3 | 0.00 | 0.00 | 0.00 | 18 | 1019.5 |
| 20260510015403 | 21 | 317 | 11.3 | 19.3 | 0.00 | 0.00 | 0.00 | 18 | 1019.5 |
| 20260510014503 | 21 | 323 | 14.5 | 20.9 | 0.00 | 0.00 | 0.00 | 18 | 1019.4 |
| 20260510013603 | 22 | 317 | 12.9 | 19.3 | 0.00 | 0.00 | 0.00 | 18 | 1019.5 |
| 20260510012703 | 22 | 307 | 11.3 | 17.7 | 0.00 | 0.00 | 0.00 | 19 | 1019.5 |
| 20260510011803 | 22 | 304 | 16.1 | 29.0 | 0.00 | 0.00 | 0.00 | 17 | 1019.5 |
| 20260510010924 | 22 | 304 | 16.1 | 33.8 | 0.00 | 0.00 | 0.00 | 17 | 1019.5 |
| 20260510010003 | 22 | 311 | 20.9 | 33.8 | 0.00 | 0.00 | 0.00 | 17 | 1019.5 |
| 20260510005403 | 22 | 303 | 19.3 | 33.8 | 0.00 | 0.00 | 0.00 | 17 | 1019.4 |
| 20260510004503 | 22 | 298 | 20.9 | 35.4 | 0.00 | 0.00 | 0.00 | 16 | 1019.4 |
| 20260510003603 | 22 | 291 | 22.5 | 35.4 | 0.00 | 0.00 | 0.00 | 17 | 1019.4 |
| 20260510002703 | 23 | 300 | 19.3 | 38.6 | 0.00 | 0.00 | 0.00 | 18 | 1019.4 |
| 20260510001803 | 22 | 295 | 22.5 | 32.2 | 0.00 | 0.00 | 0.00 | 17 | 1019.5 |
| 20260510000903 | 22 | 300 | 24.1 | 40.2 | 0.00 | 0.00 | 0.00 | 18 | 1019.5 |
| 20260510000003 | 22 | 306 | 27.4 | 43.5 | 0.00 | 0.00 | 0.00 | 17 | 1019.6 |
| 20260509235403 | 22 | 306 | 27.4 | 40.2 | 0.00 | 0.00 | 0.00 | 17 | 1019.5 |
| 20260509234503 | 23 | 296 | 24.1 | 41.8 | 0.00 | 0.00 | 0.00 | 16 | 1019.5 |
| 20260509233603 | 23 | 296 | 20.9 | 41.8 | 0.00 | 0.00 | 0.00 | 17 | 1019.5 |
| 20260509232703 | 23 | 300 | 22.5 | 41.8 | 0.00 | 0.00 | 0.00 | 19 | 1019.6 |
| 20260509231803 | 23 | 296 | 20.9 | 35.4 | 0.00 | 0.00 | 0.00 | 19 | 1019.7 |
| 20260509230903 | 22 | 291 | 25.7 | 38.6 | 0.00 | 0.00 | 0.00 | 20 | 1019.8 |
| 20260509230003 | 22 | 294 | 29.0 | 45.1 | 0.00 | 0.00 | 0.00 | 19 | 1019.7 |
| 20260509225403 | 22 | 283 | 29.0 | 43.5 | 0.00 | 0.00 | 0.00 | 19 | 1019.5 |
| 20260509224503 | 23 | 288 | 27.4 | 46.7 | 0.00 | 0.00 | 0.00 | 19 | 1019.5 |
| 20260509223603 | 23 | 290 | 29.0 | 46.7 | 0.00 | 0.00 | 0.00 | 19 | 1019.6 |
| 20260509222703 | 23 | 288 | 27.4 | 46.7 | 0.00 | 0.00 | 0.00 | 18 | 1019.7 |
| 20260509221803 | 23 | 289 | 22.5 | 38.6 | 0.00 | 0.00 | 0.00 | 20 | 1019.8 |
| 20260509220903 | 23 | 290 | 20.9 | 45.1 | 0.00 | 0.00 | 0.00 | 20 | 1019.8 |
| 20260509220003 | 23 | 280 | 20.9 | 45.1 | 0.00 | 0.00 | 0.00 | 20 | 1019.9 |
| 20260509215403 | 22 | 272 | 24.1 | 45.1 | 0.00 | 0.00 | 0.00 | 22 | 1020.1 |
| 20260509214503 | 22 | 272 | 19.3 | 38.6 | 0.00 | 0.00 | 0.00 | 21 | 1020.2 |
| 20260509213624 | 23 | 286 | 22.5 | 38.6 | 0.00 | 0.00 | 0.00 | 20 | 1020.2 |
| 20260509212703 | 22 | 287 | 22.5 | 37.0 | 0.00 | 0.00 | 0.00 | 21 | 1020.2 |
| 20260509211803 | 22 | 280 | 19.3 | 32.2 | 0.00 | 0.00 | 0.00 | 23 | 1020.2 |
| 20260509210924 | 22 | 263 | 17.7 | 30.6 | 0.00 | 0.00 | 0.00 | 22 | 1020.2 |
| 20260509210003 | 22 | 277 | 17.7 | 30.6 | 0.00 | 0.00 | 0.00 | 22 | 1020.4 |
| 20260509205403 | 23 | 284 | 19.3 | 33.8 | 0.00 | 0.00 | 0.00 | 22 | 1020.3 |
| 20260509204503 | 22 | 279 | 20.9 | 37.0 | 0.00 | 0.00 | 0.00 | 22 | 1020.4 |
| 20260509203603 | 23 | 297 | 22.5 | 40.2 | 0.00 | 0.00 | 0.00 | 23 | 1020.4 |
| 20260509202703 | 23 | 289 | 22.5 | 38.6 | 0.00 | 0.00 | 0.00 | 23 | 1020.4 |
| 20260509201803 | 22 | 294 | 22.5 | 38.6 | 0.00 | 0.00 | 0.00 | 24 | 1020.5 |
| 20260509200903 | 23 | 296 | 22.5 | 37.0 | 0.00 | 0.00 | 0.00 | 22 | 1020.7 |
| 20260509200024 | 22 | 287 | 22.5 | 33.8 | 0.00 | 0.00 | 0.00 | 23 | 1020.7 |
| 20260509195403 | 22 | 279 | 24.1 | 35.4 | 0.00 | 0.00 | 0.00 | 23 | 1020.7 |
| 20260509194503 | 22 | 275 | 20.9 | 32.2 | 0.00 | 0.00 | 0.00 | 23 | 1020.7 |
| 20260509193603 | 22 | 296 | 20.9 | 32.2 | 0.00 | 0.00 | 0.00 | 23 | 1020.9 |
| 20260509192703 | 22 | 292 | 24.1 | 38.6 | 0.00 | 0.00 | 0.00 | 23 | 1021.0 |
| 20260509191803 | 21 | 290 | 22.5 | 35.4 | 0.00 | 0.00 | 0.00 | 24 | 1021.1 |
| 20260509190903 | 22 | 295 | 24.1 | 38.6 | 0.00 | 0.00 | 0.00 | 23 | 1021.1 |
| 20260509190003 | 21 | 283 | 24.1 | 38.6 | 0.00 | 0.00 | 0.00 | 22 | 1021.1 |